This is the latest recevied weather packets stored in our database for station/object K6GMW. If no packets are shown the sender has not sent any weather packets the latest 1 day(s).
| Time | Temp. | Humidity | Pressure | Rain* | Wind** | Luminosity | Snow |
|---|---|---|---|---|---|---|---|
| 1778004507 | 27.78° C | 69% | 1007.6 hPa | 0 mm | 3.13 m/s, 202° | 620 W/m² | - |
| 1778004204 | 27.22° C | 71% | 1007.7 hPa | 0 mm | 3.13 m/s, 193° | 1059 W/m² | - |
| 1778003900 | 26.67° C | 70% | 1007.6 hPa | 0 mm | 6.26 m/s, 221° | 1296 W/m² | - |
| 1778003597 | 26.67° C | 71% | 1007.7 hPa | 0 mm | 2.68 m/s, 195° | 1211 W/m² | - |
| 1778003293 | 26.67° C | 72% | 1007.8 hPa | 0 mm | 2.68 m/s, 161° | 406 W/m² | - |
| 1778002991 | 26.67° C | 72% | 1007.7 hPa | 0 mm | 3.58 m/s, 178° | 444 W/m² | - |
| 1778002686 | 26.67° C | 72% | 1007.6 hPa | 0 mm | 7.15 m/s, 179° | 736 W/m² | - |
| 1778002383 | 26.11° C | 75% | 1007.7 hPa | 0 mm | 3.13 m/s, 196° | 525 W/m² | - |
| 1778002091 | 26.11° C | 73% | 1007.7 hPa | 0 mm | 4.47 m/s, 226° | 433 W/m² | - |
| 1778001777 | 26.11° C | 74% | 1007.8 hPa | 0 mm | 5.81 m/s, 185° | 395 W/m² | - |
| 1778001472 | 26.11° C | 74% | 1007.7 hPa | 0 mm | 1.79 m/s, 179° | 488 W/m² | - |
| 1778001169 | 25.56° C | 74% | 1007.6 hPa | 0 mm | 4.47 m/s, 215° | 997 W/m² | - |
| 1778000866 | 25.56° C | 75% | 1007.7 hPa | 0 mm | 4.92 m/s, 178° | 509 W/m² | - |
| 1778000563 | 25.56° C | 76% | 1007.9 hPa | 0 mm | 4.47 m/s, 234° | 684 W/m² | - |
| 1778000258 | 25° C | 76% | 1007.9 hPa | 0 mm | 3.13 m/s, 201° | 471 W/m² | - |
| 1777999954 | 25° C | 75% | 1007.8 hPa | 0 mm | 2.68 m/s, 200° | 408 W/m² | - |
| 1777999650 | 25° C | 77% | 1007.9 hPa | 0 mm | 2.68 m/s, 207° | 476 W/m² | - |
| 1777999347 | 24.44° C | 78% | 1007.9 hPa | 0 mm | 2.24 m/s, 172° | 536 W/m² | - |
| 1777999045 | 24.44° C | 78% | 1008.2 hPa | 0 mm | 2.68 m/s, 197° | 350 W/m² | - |
| 1777998743 | 23.89° C | 78% | 1008.2 hPa | 0 mm | 2.24 m/s, 197° | 271 W/m² | - |
| 1777998440 | 23.89° C | 79% | 1008.2 hPa | 0 mm | 4.47 m/s, 164° | 231 W/m² | - |
| 1777998137 | 23.89° C | 78% | 1008.2 hPa | 0 mm | 2.24 m/s, 177° | 260 W/m² | - |
| 1777997834 | 23.89° C | 79% | 1008.1 hPa | 0 mm | 4.02 m/s, 204° | 319 W/m² | - |
| 1777997532 | 23.89° C | 79% | 1008.4 hPa | 0 mm | 2.24 m/s, 174° | 210 W/m² | - |
| 1777997229 | 23.89° C | 79% | 1008.2 hPa | 0 mm | 1.79 m/s, 208° | 281 W/m² | - |
* Rain latest hour (hover to see other rain measurements)
** Current wind speed in m/s (hover to see current wind gust speed)